Tracking 28790 objects as of 19-Apr-2024
HD Live streaming from Space Station
objects crossing your sky now

COSMOS 2368

Track COSMOS 2368 now!
COSMOS 2368 is classified as:


NORAD ID: 26042
Int'l Code: 1999-073A
Perigee: 3,453.7 km
Apogee: 36,924.9 km
Inclination: 67.7 °
Period: 718.0 minutes
Semi major axis: 26560 km
RCS: 7.9432 m2 (large)
Launch date: December 27, 1999
Source: Commonwealth of Independent States (former USSR) (CIS)
Launch site: PLESETSK MISSILE AND SPACE COMPLEX (PKMTR)
Your satellite tracking list
Your tracking list is empty




NASA's NSSDC Master Catalog

Two Line Element Set (TLE):
1 26042U 99073A   24109.14111666  .00000216  00000-0  00000-0 0  9993
2 26042  67.7321 353.7556 6300988 178.2531 186.0088  2.00564162178077
Source of the keplerian elements: AFSPC